Theta_e
338 338 343 349 350 351 352 351 351 352 352 351 351 351 352 351 350 349 349 348 348 349 350 349 350 349 349 348 348 348 348 349 349 348 348 348 348 348 349 349 349 350 350 350 351 350 350 350 349 348 348 347 346 345 345 346 346 347 348 348 349 350 350 351 351 351 350 351 351 351 351 351 352 351 352 353 353 353 352 351 351 350 349 351 353
338 340 344 347 350 351 351 352 352 351 351 351 351 352 351 351 350 349 349 348 349 349 349 349 349 349 349 349 349 348 349 348 348 348 348 348 348 348 348 348 349 349 349 350 349 350 350 350 348 347 347 345 344 344 344 345 345 346 346 347 348 349 349 349 349 350 350 349 349 350 349 350 350 350 351 352 353 353 351 351 351 347 347 353 353
339 341 343 346 349 350 351 352 351 352 351 352 351 351 351 351 349 349 349 349 349 349 350 349 349 349 349 348 349 349 349 348 349 348 348 348 348 348 348 348 348 349 349 348 350 349 349 348 346 345 345 343 342 342 342 342 343 344 345 346 347 347 347 347 347 348 349 349 348 347 346 348 348 349 350 351 351 352 351 351 350 350 348 352 352
338 340 343 346 346 348 351 352 351 351 351 352 351 351 351 350 349 349 349 350 349 349 349 349 349 348 348 348 349 349 348 348 349 349 349 348 348 348 348 348 348 349 349 350 349 349 348 347 346 345 343 342 341 341 341 341 341 342 343 344 345 345 345 346 346 346 346 347 346 343 345 341 344 348 349 350 350 349 350 351 351 350 351 351 351
338 340 343 345 346 346 350 351 352 352 351 351 351 351 351 350 349 350 350 349 350 350 349 349 348 348 349 349 349 349 348 348 348 348 348 348 348 348 348 348 349 349 348 348 348 348 346 345 344 343 342 341 340 339 339 340 340 340 341 342 343 343 343 344 344 345 344 344 342 341 341 342 342 347 347 348 348 346 348 350 350 350 350 350 351
338 340 343 344 345 345 348 351 352 351 351 351 352 351 350 350 349 350 349 349 349 349 349 349 349 348 349 349 348 348 348 348 348 347 347 347 347 347 347 347 347 348 348 347 346 346 345 344 343 342 340 339 338 338 337 337 337 338 339 340 340 341 341 341 343 342 344 342 340 337 340 341 343 345 348 348 347 346 347 347 347 349 349 350 350
338 340 343 344 344 344 345 351 352 352 351 351 352 351 350 350 350 349 349 350 348 349 349 349 348 349 349 349 349 348 347 346 347 347 347 347 347 346 347 347 347 346 347 347 347 345 343 342 342 340 338 337 337 336 336 336 335 334 335 337 338 338 338 339 340 340 339 337 331 335 341 342 341 342 347 348 348 347 346 346 346 347 348 349 349
339 340 342 343 343 344 345 350 351 352 351 351 351 351 351 350 349 349 349 348 349 349 349 349 349 349 349 348 348 348 347 348 348 347 347 347 347 347 346 346 347 346 347 347 345 344 342 341 341 339 337 335 335 334 334 334 334 333 332 333 335 336 337 337 338 339 338 330 333 340 341 341 340 342 346 346 346 346 348 348 348 347 348 347 346
339 340 341 343 343 342 345 348 351 351 351 351 352 351 351 350 349 349 349 348 349 349 349 349 349 348 349 348 349 348 348 348 347 347 346 347 346 345 345 345 345 345 346 344 342 341 340 339 339 338 337 334 333 332 332 332 332 332 332 331 333 335 335 336 336 336 331 331 335 340 341 341 340 340 346 346 347 346 345 344 345 346 346 344 345
339 339 340 342 342 341 344 348 351 351 351 351 352 351 350 350 350 349 348 349 349 349 349 349 348 349 348 348 349 348 348 348 347 346 346 345 344 343 343 343 342 343 343 341 341 339 337 337 337 335 335 333 331 331 330 330 330 331 330 330 331 333 334 334 335 330 329 332 338 339 340 343 339 341 345 346 346 345 344 343 342 341 343 344 344
338 338 339 341 341 341 346 349 350 350 351 351 351 351 351 350 350 349 349 348 349 349 349 349 349 348 348 348 348 348 347 347 346 345 344 343 343 342 341 341 340 340 339 339 338 338 336 335 334 334 333 331 329 329 328 328 328 328 327 328 330 331 332 333 333 324 329 331 336 339 343 343 337 338 345 345 344 344 342 343 342 342 342 342 342
335 337 339 339 339 341 345 348 350 350 350 351 351 351 350 350 350 349 349 349 348 348 349 349 348 348 349 349 348 348 347 347 346 344 343 343 342 342 341 340 339 339 338 337 336 335 335 334 333 333 331 329 327 327 326 326 325 326 326 327 329 330 329 332 326 325 328 329 332 334 336 337 337 340 343 343 343 342 341 341 341 341 342 341 341
333 335 338 339 340 340 343 347 348 350 350 351 351 351 351 350 350 349 348 348 348 348 348 349 349 348 349 348 348 347 347 346 345 344 343 342 341 341 340 339 339 338 338 336 335 334 334 334 333 332 329 327 326 324 324 323 323 324 325 325 327 327 328 328 323 324 325 327 329 330 332 332 335 342 342 341 341 340 340 339 339 339 339 339 339
333 333 338 339 339 337 341 344 346 349 350 351 351 350 351 351 350 350 349 348 348 348 349 350 350 349 349 348 348 347 347 345 344 343 342 341 340 340 339 339 338 338 338 337 335 334 334 333 331 329 328 325 324 323 322 322 322 322 323 324 325 325 327 320 326 321 323 325 327 327 327 330 334 341 341 340 339 339 337 337 337 337 337 336 336
332 333 337 338 337 339 337 341 343 345 347 349 350 349 350 350 350 349 349 349 349 349 349 350 349 349 349 348 347 346 346 344 344 342 341 340 339 338 338 339 337 333 332 332 332 332 331 330 329 328 325 324 324 323 322 322 321 321 323 323 323 324 323 315 318 319 322 324 325 325 325 327 340 338 338 338 338 337 336 336 336 335 335 335 334
331 335 336 336 337 338 338 338 339 342 342 345 346 347 348 348 349 349 349 348 348 349 349 348 348 348 348 348 347 346 345 344 343 341 340 339 338 336 335 334 333 332 332 332 332 330 329 329 328 326 324 323 323 322 321 320 320 320 321 321 322 323 321 319 317 319 320 321 322 323 323 326 336 335 335 335 334 335 334 334 335 334 334 334 333
330 335 336 335 336 337 338 339 338 336 337 339 341 343 344 346 347 348 348 347 347 348 348 347 347 347 347 347 346 345 344 344 342 339 338 337 336 335 334 334 333 333 332 332 331 330 329 328 326 324 323 323 322 321 320 319 319 319 319 320 321 320 320 319 316 316 318 320 320 320 322 326 333 332 332 332 332 332 331 332 332 333 333 333 333
329 334 335 336 336 337 337 338 338 338 339 337 335 338 341 343 344 345 344 345 345 346 346 345 345 345 344 343 342 340 341 341 339 339 338 337 336 335 335 333 333 332 332 331 331 329 328 327 325 324 323 322 321 320 319 317 317 317 317 317 317 318 318 316 312 315 318 320 317 319 321 332 330 331 331 330 330 329 330 329 330 330 330 330 331
325 331 334 335 336 336 337 337 337 338 338 340 341 339 336 338 340 341 341 342 343 342 342 342 341 341 341 338 336 334 334 334 334 334 336 333 333 330 332 334 333 332 331 331 330 329 327 326 325 324 323 321 320 319 317 315 314 314 314 314 314 314 314 311 310 314 316 316 317 318 320 331 328 329 329 328 328 328 328 328 329 328 327 328 329
322 326 330 334 335 336 336 336 337 338 338 340 340 340 334 333 337 339 339 340 339 339 339 339 335 333 332 330 328 329 329 329 326 329 329 331 328 325 329 334 332 332 331 330 329 328 326 325 324 323 322 320 318 315 314 313 312 312 312 311 312 310 303 303 308 312 314 315 317 318 329 328 327 328 328 328 328 328 328 327 326 326 327 327 328
324 323 327 329 332 335 335 336 336 337 339 340 341 339 336 331 333 333 333 335 335 335 335 331 326 325 324 322 322 326 325 325 325 325 322 324 320 322 327 332 331 332 332 330 329 328 327 325 324 322 321 319 315 314 313 311 310 310 310 312 309 300 301 303 308 310 312 312 314 318 329 327 327 328 328 328 327 327 326 326 327 327 327 326 326
322 323 325 327 329 332 334 335 335 336 338 340 341 340 337 333 336 335 334 333 331 328 330 331 325 325 321 322 324 322 322 322 322 322 321 321 320 321 323 328 331 331 330 330 329 327 326 325 324 322 320 315 310 298 300 309 308 308 309 308 298 298 299 303 307 308 308 308 312 321 328 326 326 327 326 326 326 326 327 326 326 326 325 326 326
319 321 324 326 328 329 332 334 335 336 336 338 339 340 338 334 334 334 333 330 329 328 329 326 324 323 321 322 321 321 321 320 320 320 320 319 320 319 322 325 329 329 328 329 329 327 325 325 324 321 316 311 301 295 294 292 292 303 304 297 295 296 297 301 305 307 308 308 307 322 327 326 324 325 325 325 326 325 325 325 325 325 324 325 325
321 322 324 327 326 327 328 333 334 335 336 336 337 338 338 335 334 333 331 331 331 330 329 326 324 322 321 321 321 321 321 320 320 318 320 318 318 318 320 321 323 323 322 323 326 326 325 324 323 319 313 303 296 295 293 291 290 292 295 295 295 295 296 297 302 305 305 307 307 321 324 328 325 324 324 325 326 325 325 325 324 324 324 324 325
320 322 321 325 326 327 328 329 332 334 335 335 334 334 334 334 333 332 330 329 329 329 328 327 324 322 321 321 321 320 321 320 319 319 318 317 315 316 317 318 318 316 318 314 315 317 316 314 313 307 300 300 296 294 294 292 293 294 295 295 295 294 295 296 299 302 303 302 308 319 321 325 328 325 325 325 325 325 324 323 324 323 323 323 323
317 319 321 323 325 327 328 329 328 332 334 334 334 332 331 332 331 331 330 328 328 327 327 326 324 323 321 321 320 320 320 318 318 317 317 316 315 313 314 313 312 314 315 313 312 310 308 308 305 301 299 297 296 295 295 294 293 295 294 294 294 294 294 294 297 301 300 301 305 317 319 322 326 326 325 324 324 324 323 323 323 322 323 322 322
315 318 321 323 324 326 327 328 328 328 332 333 333 330 329 331 331 330 329 327 326 325 325 325 325 323 321 320 320 319 319 317 317 316 316 316 315 314 313 313 313 313 313 313 311 309 307 305 302 300 297 295 295 295 295 295 293 295 295 295 295 294 293 294 295 299 299 300 306 315 317 321 325 326 325 324 324 324 323 322 322 322 322 322 322
314 317 320 322 322 325 326 327 328 328 328 330 331 331 328 328 328 326 328 326 325 325 324 324 324 323 321 321 320 320 319 316 316 316 315 315 315 314 314 312 312 312 311 312 310 306 305 303 302 298 296 295 295 295 296 296 295 295 295 294 294 294 294 294 294 297 298 298 300 308 316 319 323 324 324 324 324 323 322 322 322 322 321 321 321
311 316 319 321 322 324 326 327 328 328 328 327 329 330 328 327 326 326 327 323 325 325 324 323 322 322 322 321 319 319 318 317 316 316 314 314 314 314 314 313 312 311 310 309 310 307 304 301 300 300 295 294 295 295 295 295 295 294 295 294 294 293 293 293 294 295 297 297 298 303 314 317 321 323 323 324 324 323 323 322 321 321 321 320 321
309 314 316 320 322 324 325 326 327 328 328 327 327 326 327 325 326 326 326 323 325 324 323 323 322 322 321 320 320 320 318 317 316 314 315 313 313 314 314 313 312 311 310 309 307 308 303 298 297 297 295 295 295 295 295 294 294 295 294 294 294 294 293 293 293 293 296 297 297 299 310 314 319 322 322 322 323 323 323 322 321 321 321 320 320
307 309 316 319 320 323 324 326 327 325 327 327 326 326 324 325 324 324 324 324 323 322 322 323 322 321 321 320 319 318 318 316 315 315 314 313 312 313 313 312 311 310 310 308 306 307 302 299 296 295 295 294 294 294 293 293 293 294 294 293 293 293 293 293 293 293 297 297 297 298 301 310 315 318 323 320 321 322 322 322 322 321 321 320 320
307 307 313 317 318 322 323 324 326 326 325 326 325 326 324 324 323 323 322 322 321 321 321 321 320 321 320 319 318 318 317 316 315 314 314 311 311 312 312 311 311 309 310 308 304 303 300 297 296 295 294 294 294 293 292 293 293 294 293 292 291 294 292 292 292 292 295 297 297 297 297 301 310 314 317 322 322 321 322 321 322 321 321 321 320
309 309 308 312 315 319 322 323 325 324 324 325 325 325 324 322 321 322 322 321 320 320 320 320 320 320 319 319 318 317 316 315 313 314 312 311 310 311 310 311 310 309 308 306 303 300 297 295 295 295 293 293 293 292 294 293 293 293 293 292 292 292 292 292 292 292 295 297 298 297 297 298 298 306 311 314 319 320 321 321 319 320 320 320 320
307 307 307 309 314 316 320 321 322 323 323 324 323 322 321 319 319 320 319 320 319 318 317 319 318 318 318 318 317 316 315 314 313 311 311 310 310 310 310 309 308 307 306 303 301 297 296 294 294 293 295 293 292 292 291 292 291 291 291 290 290 292 292 292 292 292 293 295 297 296 297 296 296 297 298 307 312 317 319 319 319 318 319 318 319
304 307 308 307 310 314 318 320 318 319 318 319 320 320 317 319 317 318 319 317 318 317 315 317 315 316 317 316 316 315 313 312 311 311 310 310 309 309 308 308 306 304 303 300 299 295 295 294 293 293 292 291 291 292 291 291 291 292 292 292 292 291 290 292 291 292 292 291 293 296 299 297 296 296 296 295 302 310 316 317 318 318 317 317 317
302 304 308 307 309 311 313 313 313 314 315 316 315 316 317 315 315 316 318 315 315 317 314 316 316 313 314 316 314 313 312 310 309 310 309 308 309 309 308 305 303 302 301 297 297 295 294 294 294 293 292 290 291 291 291 290 291 291 291 291 291 292 290 290 291 292 292 290 292 295 297 297 296 295 297 294 295 301 311 314 316 317 317 316 316
303 303 304 307 310 311 311 312 312 312 313 313 312 313 315 314 314 316 315 314 315 315 315 315 315 314 312 312 312 312 311 308 307 308 309 308 307 308 305 304 301 300 298 296 295 294 294 294 293 293 293 291 291 290 290 291 291 291 290 289 290 291 290 291 291 292 291 290 290 290 291 292 296 300 294 293 293 294 305 309 311 312 312 314 315
303 303 303 305 308 309 309 310 311 311 311 312 312 312 313 313 312 312 313 314 312 313 313 314 313 311 310 310 311 311 310 308 306 306 306 307 306 305 303 302 300 298 297 295 295 293 293 294 292 291 291 291 290 290 290 290 291 291 289 289 289 289 289 290 291 293 290 290 290 290 290 290 293 291 292 292 292 293 295 302 306 306 306 310 313
302 303 303 303 305 307 308 308 309 311 312 312 312 313 313 312 311 312 312 311 311 310 312 311 311 311 310 309 310 310 310 308 306 305 306 304 303 302 303 300 299 297 296 295 293 292 293 293 293 291 290 291 291 290 290 290 291 290 290 289 288 288 289 289 291 291 289 290 290 292 290 289 289 289 291 290 290 291 292 292 291 291 294 305 310
301 302 302 303 303 303 305 305 306 308 311 312 312 311 311 309 310 310 310 309 309 309 309 308 308 309 308 308 309 310 308 308 306 304 304 303 302 301 302 299 298 296 296 294 293 292 292 292 292 291 290 288 289 289 290 290 288 288 289 288 289 289 289 289 288 289 290 289 290 291 290 288 288 288 289 289 289 289 290 290 290 290 291 298 304
299 300 301 301 302 302 301 301 303 305 308 310 309 308 308 306 305 306 305 306 306 306 309 308 307 307 305 306 306 308 307 307 306 303 303 302 302 299 300 298 297 296 296 296 294 293 293 292 291 290 290 289 288 288 290 290 288 286 286 287 288 287 289 288 287 288 288 288 288 289 288 289 288 288 288 288 288 287 287 288 289 288 290 289 294
297 298 298 299 300 301 300 300 301 302 302 304 306 307 306 305 306 305 304 304 305 305 306 307 306 306 304 304 305 304 304 305 305 303 302 301 300 298 298 299 297 296 296 295 293 292 290 290 289 288 289 290 289 289 291 290 286 286 285 284 285 285 286 287 288 288 287 288 289 289 288 288 288 288 288 288 288 288 287 287 288 288 287 288 288
296 296 297 298 298 299 300 300 300 300 300 301 303 304 304 304 304 302 302 302 302 303 303 304 305 305 303 303 303 303 303 303 302 302 303 300 300 298 297 297 297 296 294 293 292 291 291 291 289 290 287 287 288 289 290 291 286 284 284 284 281 283 285 286 286 287 289 288 287 288 289 288 288 288 289 288 288 288 288 288 288 288 287 286 286
295 295 296 296 297 297 298 298 299 299 300 300 300 301 302 301 301 301 301 302 301 300 301 301 301 303 302 300 300 301 301 301 301 300 301 300 299 298 296 295 296 295 295 294 292 292 291 290 290 290 289 288 288 289 290 290 286 287 283 285 281 282 281 284 285 285 287 288 287 287 288 288 287 287 288 288 288 288 288 288 288 288 287 286 286
295 294 295 295 296 296 296 297 298 298 299 299 299 299 301 301 301 301 299 297 296 298 297 296 296 297 300 301 301 299 300 299 299 299 299 299 297 297 295 295 295 294 294 294 293 293 291 291 291 290 289 290 288 287 289 289 287 291 288 282 281 282 283 281 283 282 284 285 286 287 287 287 287 287 287 287 287 288 288 287 287 287 288 287 287
294 295 295 295 295 295 296 296 297 297 297 298 298 298 298 297 297 297 295 294 294 295 295 296 297 297 299 297 298 298 298 298 297 298 297 297 297 297 295 294 293 293 294 294 293 291 291 290 291 291 290 289 289 287 287 290 289 288 288 287 286 286 282 282 283 285 282 284 285 286 286 287 287 287 287 286 287 287 287 288 287 287 287 287 287
293 294 295 295 295 295 295 295 295 296 297 297 297 298 297 297 296 296 295 295 294 295 295 296 296 297 298 299 298 297 298 298 297 296 296 296 296 295 295 294 293 292 292 292 292 292 292 291 291 290 290 291 287 287 288 289 288 288 288 288 287 285 284 285 284 280 281 283 283 284 285 285 286 286 287 286 286 286 287 287 287 287 287 287 287
292 293 293 294 294 294 294 294 295 295 295 296 296 296 296 296 295 295 295 295 294 295 296 297 297 296 296 297 297 297 296 297 297 295 295 295 294 295 294 294 293 291 292 292 292 291 291 291 291 291 290 290 289 288 288 287 288 288 289 288 287 287 285 285 283 288 283 280 281 282 283 285 285 286 287 287 286 286 286 286 287 286 287 287 287
291 291 292 292 293 294 294 294 294 294 295 295 295 295 295 294 294 294 294 294 294 295 295 296 296 296 295 295 295 295 296 295 296 296 294 294 294 294 293 293 293 293 290 292 291 291 290 290 290 290 290 289 288 288 287 288 288 288 286 287 286 286 287 286 285 283 283 284 281 281 282 283 284 285 286 287 287 287 287 287 287 287 287 287 287
290 291 291 291 292 292 292 293 293 294 294 294 294 294 294 294 293 293 292 292 293 294 294 294 294 294 294 294 294 294 293 294 294 294 294 293 293 293 293 293 293 293 292 291 289 290 290 289 290 290 290 290 289 288 288 287 288 289 288 288 286 285 286 288 286 284 284 282 286 280 282 282 282 285 287 286 287 286 286 286 286 286 286 286 286
289 289 290 290 290 290 291 291 291 293 293 293 293 293 293 293 292 292 292 291 292 292 292 292 292 293 292 293 293 293 293 292 292 294 293 293 292 292 292 293 292 292 292 291 290 290 290 290 290 289 289 290 290 289 289 288 287 287 287 286 287 287 287 287 288 286 288 286 284 281 280 283 284 284 284 287 287 286 286 286 286 286 286 286 286
Wind_Speed
7 11 9 15 17 18 19 19 18 18 17 16 15 15 14 13 13 12 11 11 11 11 12 12 11 11 11 10 10 9 9 8 8 7 7 7 6 6 6 6 6 7 8 10 12 12 12 14 13 13 12 12 12 12 12 12 12 12 12 12 11 10 10 10 10 10 9 10 11 11 11 10 10 10 11 12 12 13 11 10 9 7 5 7 11
11 10 10 10 17 17 19 19 19 18 17 16 16 15 15 14 13 12 12 12 12 12 12 11 11 11 10 10 10 9 8 8 8 7 7 6 6 5 6 6 6 7 9 10 10 11 12 13 12 12 12 12 11 11 11 10 10 10 11 11 10 10 9 9 9 9 8 9 10 10 10 11 11 10 11 12 13 13 11 10 9 4 3 10 11
10 11 9 11 16 17 17 18 19 19 18 16 16 15 15 14 14 13 13 12 13 12 12 11 11 10 10 10 9 9 8 8 7 7 7 6 6 6 6 6 7 9 9 10 11 12 12 12 11 12 12 11 11 10 10 10 9 9 9 9 9 8 8 8 8 7 7 8 9 8 9 9 10 10 10 11 13 12 10 10 9 8 6 11 10
11 10 10 12 16 16 17 17 18 18 17 16 16 15 15 14 14 14 14 13 13 13 12 11 11 11 10 9 9 9 8 8 7 7 7 7 7 6 6 8 10 10 10 11 10 12 12 12 11 11 11 11 10 10 9 9 9 9 8 8 8 7 7 6 6 6 5 6 7 7 3 4 5 10 11 11 12 12 9 10 10 10 11 10 11
11 9 10 11 11 15 17 17 17 17 17 17 16 15 16 14 14 14 14 14 14 13 13 12 11 11 10 10 9 9 9 8 8 8 8 8 8 8 8 8 10 11 10 11 9 12 12 11 10 10 10 9 10 9 8 8 8 8 8 7 7 7 7 6 5 6 6 4 4 3 1 2 4 8 10 11 12 10 8 9 11 12 11 11 11
10 10 10 10 10 12 17 17 17 18 17 17 16 16 16 15 15 14 14 14 14 14 14 12 12 11 11 10 10 9 8 9 8 8 9 9 8 8 8 10 10 11 11 11 9 11 11 10 9 9 9 9 9 8 8 8 8 7 7 7 7 6 6 6 7 6 3 5 4 1 1 0 4 4 9 10 11 10 9 10 11 11 11 12 11
10 8 9 10 9 11 16 17 19 18 18 17 17 16 16 15 15 15 15 14 14 13 13 13 12 11 11 10 10 9 9 9 10 9 9 9 9 9 9 9 10 11 10 10 11 10 8 8 8 8 7 7 8 8 7 7 7 6 6 6 6 6 6 7 8 8 6 4 2 3 3 1 3 3 8 9 10 12 12 11 10 11 12 13 13
8 8 9 9 8 12 16 17 18 18 18 17 17 16 16 16 15 15 15 14 14 14 13 13 12 11 11 11 10 10 10 11 11 11 12 11 11 10 10 9 10 10 10 10 11 9 7 6 6 6 6 6 7 7 7 7 6 6 6 6 6 6 6 7 8 8 8 4 2 5 4 4 4 3 8 9 10 11 12 13 12 13 13 13 9
8 8 9 8 7 13 16 17 18 20 19 19 17 16 16 16 15 14 14 14 13 14 13 13 12 12 11 11 11 11 12 12 12 12 12 13 12 10 8 8 9 9 9 9 7 6 6 6 5 4 5 5 6 6 6 6 6 6 6 5 5 6 6 7 8 7 5 3 2 5 5 5 4 4 9 11 12 12 13 11 10 12 12 11 8
8 8 9 7 7 13 15 16 18 19 19 19 18 16 17 16 14 15 15 14 13 13 13 13 12 12 11 11 11 11 12 13 13 13 13 12 12 10 8 8 5 6 7 6 6 5 4 4 4 3 4 4 5 5 6 6 6 6 6 5 5 6 7 7 8 5 3 3 4 5 5 6 4 5 8 11 12 13 12 9 7 7 6 9 10
9 9 8 8 9 13 14 15 16 17 17 18 17 17 19 16 15 15 15 14 13 13 13 13 12 12 11 11 12 12 13 13 14 13 13 12 11 9 8 7 7 8 4 5 3 4 3 2 2 2 3 4 4 5 5 5 5 6 6 5 5 6 7 8 5 3 3 4 5 5 6 8 4 4 10 11 12 12 10 9 8 8 9 10 10
9 8 8 7 11 14 13 14 15 16 15 15 16 17 18 17 16 16 15 14 14 13 13 13 12 12 11 12 12 13 14 14 14 13 12 12 11 10 9 8 6 6 6 3 2 0 2 1 1 3 4 4 4 4 5 5 5 5 5 6 6 7 7 7 4 4 5 5 4 3 3 4 3 5 9 9 9 10 8 9 9 8 9 9 9
7 8 8 8 10 15 14 14 14 14 14 14 17 17 16 16 16 16 16 15 15 13 13 11 11 12 11 12 13 14 15 14 14 13 11 11 11 10 8 8 7 6 5 4 3 2 2 2 3 4 5 5 4 4 4 4 4 4 5 5 7 7 7 7 3 5 5 4 5 4 3 3 4 8 8 9 8 9 8 7 8 7 7 8 7
7 6 7 8 9 15 16 14 13 14 14 14 17 16 15 15 15 14 15 15 14 14 12 10 10 10 10 13 14 15 15 15 14 12 12 11 11 9 8 8 6 6 7 8 5 3 2 3 4 4 5 5 4 4 4 4 4 5 5 6 7 8 8 5 5 4 5 4 4 4 4 2 3 9 9 7 8 7 6 6 6 6 7 7 6
7 5 7 7 8 11 17 16 13 13 13 13 14 14 14 14 14 13 13 13 13 13 12 11 11 11 12 14 15 15 15 14 13 12 12 11 10 9 8 8 5 4 4 3 3 3 4 4 4 4 5 4 4 4 4 4 5 5 6 6 7 8 8 4 4 5 6 5 4 4 5 3 5 7 7 7 7 6 6 5 6 4 4 4 5
7 7 7 7 8 8 10 13 15 13 12 12 13 13 13 13 13 13 12 12 12 12 12 12 13 12 12 13 15 16 15 14 12 12 11 11 11 9 7 6 5 5 4 4 5 4 5 4 5 5 4 4 4 4 4 4 5 6 6 7 7 8 8 5 4 5 5 5 4 4 4 4 6 5 5 5 5 6 5 4 5 4 4 4 4
7 8 8 8 9 9 9 9 10 13 12 12 12 12 12 13 12 13 12 12 12 11 11 12 12 13 12 13 14 13 12 12 12 13 11 11 10 9 8 7 7 7 7 6 6 6 5 6 6 5 5 4 4 4 5 5 6 6 6 7 7 8 8 5 5 5 5 4 3 4 4 3 5 7 6 4 4 5 2 3 3 4 4 5 5
6 8 8 8 9 9 9 8 8 8 7 10 12 12 12 13 13 12 12 11 11 12 12 12 12 13 12 11 12 11 10 13 12 11 11 9 9 9 8 8 8 8 8 8 7 7 6 7 6 6 5 5 5 5 5 6 6 6 6 7 8 8 7 7 5 5 5 4 4 3 4 4 7 6 6 6 5 4 4 3 2 3 3 4 5
4 7 7 8 9 8 9 8 8 7 8 7 7 10 14 13 13 13 12 12 12 12 11 12 12 12 12 10 9 10 11 12 11 11 10 10 9 9 8 8 9 9 8 8 8 7 7 6 7 7 6 6 5 5 6 6 7 7 7 8 8 7 8 6 4 4 4 4 4 4 4 4 5 5 5 5 4 4 4 4 4 3 2 3 4
2 4 7 7 8 9 8 8 8 9 8 8 8 8 11 14 14 14 13 13 13 12 11 11 11 11 10 10 9 8 9 10 13 10 11 11 10 7 8 7 9 9 9 8 8 8 8 7 8 8 7 7 6 6 6 6 6 6 7 7 6 7 5 5 4 4 4 4 4 5 7 5 3 4 4 4 4 5 4 4 4 3 4 5 5
2 4 5 7 8 10 10 8 8 9 9 9 9 9 10 13 12 14 14 14 13 12 11 11 10 9 8 8 9 6 5 6 8 7 10 7 10 10 9 8 8 7 8 9 9 9 9 8 8 9 8 8 8 7 6 6 6 6 7 6 6 5 4 5 5 4 4 3 4 5 9 4 4 5 4 4 4 5 5 5 5 6 5 4 6
6 6 5 6 8 9 11 11 9 11 10 9 7 8 8 11 9 9 9 10 11 10 9 7 7 5 8 7 5 5 5 5 6 7 6 7 8 11 9 8 7 7 7 8 10 10 10 9 9 10 10 8 8 3 3 4 4 5 5 5 4 3 4 5 5 5 3 3 3 5 9 2 4 5 4 5 5 4 5 6 6 5 6 6 6
6 7 7 8 7 7 9 10 11 11 10 9 8 8 9 8 8 9 8 9 8 8 7 7 6 6 5 6 6 6 6 6 6 7 6 9 8 10 10 9 7 8 8 8 9 10 10 9 10 10 10 9 4 3 3 2 1 3 4 3 3 3 3 4 4 5 3 2 3 6 7 4 3 3 5 5 5 5 5 4 5 6 6 6 6
9 9 10 8 7 8 9 10 11 11 11 9 8 8 8 8 7 7 7 7 7 7 7 7 6 7 7 6 6 6 6 6 8 11 9 6 7 10 11 10 7 9 10 7 9 9 11 10 10 11 7 4 4 3 3 2 1 1 2 3 3 3 4 3 4 4 3 3 2 5 5 5 1 4 5 6 6 6 6 7 6 6 4 3 5
11 9 6 8 9 9 8 8 9 10 11 9 9 8 7 7 7 7 7 7 7 7 6 7 7 7 7 7 7 6 6 6 6 6 6 6 5 5 5 5 4 5 8 5 5 5 5 5 5 5 4 4 3 3 3 3 0 1 2 3 3 3 3 3 3 4 3 2 2 5 5 5 4 4 5 6 6 6 6 6 5 5 3 4 2
5 7 10 9 10 10 9 8 7 9 11 10 10 9 9 9 8 8 8 7 7 7 7 7 7 8 7 7 7 7 7 7 6 6 6 6 6 6 6 5 5 5 5 6 6 5 4 5 5 4 4 3 3 3 3 3 2 0 1 2 2 2 2 3 4 4 3 2 2 5 5 6 5 3 7 6 6 6 5 6 6 4 5 3 3
8 10 9 9 10 9 10 9 9 9 11 10 9 8 8 9 9 9 9 8 7 8 7 7 8 8 7 7 8 7 7 7 7 7 7 7 7 6 6 6 6 6 6 7 6 6 6 6 5 4 3 3 2 3 3 3 2 2 2 2 1 3 3 3 4 4 3 2 2 5 5 5 5 5 7 7 7 7 7 5 4 5 5 4 4
7 9 8 9 9 12 12 10 10 9 9 10 10 9 8 9 9 9 9 9 9 8 8 8 7 8 8 8 8 7 8 7 7 7 7 6 7 7 7 6 6 6 6 6 7 6 6 6 5 4 3 3 2 4 3 3 3 4 4 3 2 2 3 2 3 3 3 2 1 4 5 5 6 7 5 6 8 6 6 6 6 6 5 5 5
6 8 9 9 11 12 12 12 10 10 8 8 9 9 8 8 8 9 9 8 8 8 8 7 7 7 7 8 7 8 7 7 8 7 7 7 7 7 7 7 7 6 6 6 7 7 6 6 6 5 4 4 4 4 4 4 5 4 5 4 3 3 3 2 2 3 3 2 2 3 5 5 6 5 3 7 7 8 8 7 6 6 6 5 5
11 9 6 9 8 10 11 13 13 12 10 7 7 7 8 8 9 9 9 8 8 8 7 7 7 7 7 7 8 8 8 8 7 6 8 7 7 7 7 7 8 7 7 8 7 7 7 6 6 6 5 5 5 4 5 4 4 4 4 4 4 4 4 4 3 3 3 2 2 2 4 5 5 5 5 4 6 8 8 8 7 7 6 6 6
7 7 8 9 9 9 10 11 11 10 9 10 8 8 7 8 7 7 7 8 7 7 7 7 7 7 8 7 7 7 7 7 7 8 6 7 7 8 8 7 7 8 7 7 6 7 7 8 7 7 7 7 6 5 5 5 4 4 4 4 4 4 4 3 3 3 4 3 2 2 2 5 5 6 6 2 3 4 6 8 8 8 8 7 7
7 8 8 7 6 9 11 10 11 10 9 9 8 8 8 8 6 6 6 6 6 7 7 7 7 7 7 7 7 7 7 7 8 7 7 7 7 7 7 7 7 7 7 7 7 6 7 6 7 6 5 5 6 4 4 6 5 5 4 4 4 5 4 4 4 4 4 3 3 2 2 2 5 6 7 6 5 5 6 3 9 8 8 9 8
6 6 3 3 6 7 8 9 9 7 9 9 8 7 5 4 6 6 6 5 6 6 7 7 7 7 7 8 8 7 7 7 7 8 7 7 6 7 7 7 7 7 7 7 7 6 6 6 6 5 6 5 5 5 4 5 5 5 5 4 5 4 4 4 3 3 4 4 4 3 2 2 2 5 7 7 7 6 5 5 2 7 7 7 8
6 3 2 2 3 3 4 4 5 7 8 7 5 5 4 4 4 4 4 5 5 6 5 6 6 6 6 7 7 7 7 6 7 6 7 7 7 7 7 7 7 6 6 7 7 7 7 7 7 7 6 7 7 6 6 5 4 4 4 4 4 5 4 4 4 4 4 4 4 4 3 2 2 3 3 6 7 7 5 4 4 1 4 5 6
10 5 2 4 3 4 4 4 5 5 5 4 5 5 4 4 5 4 4 4 5 5 4 5 5 6 6 6 6 6 5 6 6 7 7 7 7 7 7 7 6 6 7 7 7 7 7 7 7 7 6 6 6 6 6 6 6 6 6 4 6 5 4 5 4 4 4 3 4 4 4 3 3 3 2 2 4 6 7 4 3 3 2 4 4
12 11 9 3 3 3 3 3 2 3 4 3 3 4 4 3 4 4 5 4 5 5 5 5 5 5 5 6 5 5 5 5 5 6 7 6 7 7 7 6 6 7 7 6 6 8 7 6 6 7 8 6 6 6 5 7 6 6 5 6 5 5 5 4 5 4 4 3 4 5 5 4 4 3 3 3 2 3 6 6 6 5 5 3 3
13 13 11 8 8 7 7 5 4 3 3 3 3 3 3 3 4 4 3 4 5 4 4 4 5 5 5 6 5 6 5 5 5 5 6 6 6 6 6 6 5 6 7 7 7 7 7 7 6 6 7 7 8 7 5 6 6 6 5 5 5 5 5 6 6 6 3 4 4 4 4 4 4 4 4 3 2 2 3 5 5 5 5 4 2
13 14 12 10 8 8 8 8 7 6 3 3 3 4 3 4 4 4 4 4 3 3 4 5 4 5 5 6 5 5 5 5 5 5 5 5 5 5 4 5 5 6 6 6 7 6 6 7 7 6 7 8 8 9 8 6 5 5 5 5 5 4 5 5 5 4 5 5 4 4 5 5 5 4 5 4 4 4 2 2 3 3 3 3 1
11 13 14 13 11 9 9 10 9 8 7 6 6 6 6 6 6 5 5 4 3 3 4 4 5 6 5 5 5 6 6 5 5 5 6 6 5 5 5 5 5 6 6 6 5 6 6 6 9 8 5 7 9 8 8 7 5 4 4 5 4 4 4 4 4 5 5 5 5 4 3 6 5 4 5 4 4 4 4 2 2 1 0 2 1
12 13 15 14 13 12 10 11 9 7 6 7 6 7 7 7 6 5 7 6 4 4 4 2 2 4 4 5 5 5 5 6 5 5 5 6 6 6 6 5 6 6 7 7 7 7 10 9 9 10 8 4 3 6 6 7 4 4 3 1 1 1 2 4 5 5 6 5 5 4 6 5 5 4 5 5 5 4 4 4 3 3 1 1 1
14 14 15 15 14 12 13 12 9 10 8 7 7 7 6 4 4 5 2 3 4 4 5 4 2 1 3 3 4 5 5 5 5 6 7 7 7 6 6 6 6 7 7 9 8 8 6 6 6 4 8 6 5 4 6 7 8 2 2 0 1 1 1 1 5 6 5 5 5 7 6 5 5 5 5 5 5 5 5 5 5 4 4 3 3
14 14 14 13 12 13 12 11 10 10 10 7 7 7 5 2 4 2 2 3 4 3 2 3 3 3 2 1 1 2 4 4 5 5 5 6 6 6 6 7 7 7 8 6 5 5 5 5 4 4 4 8 7 7 8 9 3 7 6 3 2 3 3 3 5 5 5 5 6 6 6 7 7 6 5 5 5 6 5 6 5 5 4 5 4
12 13 12 14 13 11 10 10 10 9 9 9 8 6 6 7 6 4 4 3 3 2 3 2 2 2 3 1 1 2 3 3 4 4 4 4 5 6 6 6 7 7 7 6 6 7 7 8 7 8 6 4 4 4 9 10 7 4 3 4 3 2 4 4 5 6 6 5 5 7 7 6 7 6 6 6 7 6 6 6 6 6 5 5 5
13 13 13 12 10 10 10 10 10 10 9 9 8 5 4 4 4 5 4 6 3 3 4 5 5 3 3 2 1 1 2 3 2 3 3 3 4 5 5 5 6 6 8 8 7 9 8 7 7 8 7 6 5 7 8 9 6 10 4 6 4 3 3 9 10 5 7 6 7 8 6 7 6 6 6 7 7 7 7 6 7 7 6 6 6
12 12 11 10 8 10 10 9 9 9 9 10 10 9 10 9 8 7 6 5 5 7 6 5 3 2 1 1 0 0 1 2 2 3 4 4 4 4 4 4 5 6 6 7 8 9 9 10 11 9 9 10 9 5 7 8 8 11 8 5 2 2 7 3 3 5 3 6 7 6 7 6 7 7 7 7 6 7 7 6 6 5 6 6 5
12 10 9 10 10 10 11 10 10 10 10 10 9 8 8 8 8 8 8 6 6 7 7 4 6 3 2 1 1 0 0 0 1 2 3 3 4 4 4 3 4 4 5 6 7 6 7 8 8 9 10 9 9 6 6 8 8 8 6 4 5 7 5 4 3 5 1 4 4 6 7 7 6 8 7 7 8 7 6 7 6 7 6 6 6
10 7 9 10 11 10 10 10 10 10 10 10 11 9 9 8 7 7 6 6 6 4 3 3 5 5 1 1 1 1 0 1 2 2 2 3 3 3 3 4 4 4 4 5 5 6 7 8 7 7 9 8 5 8 10 10 7 8 8 10 2 0 4 7 7 3 2 2 4 6 7 6 7 7 8 9 8 7 7 7 8 7 7 6 6
7 8 9 9 11 11 11 11 10 11 11 10 11 10 9 8 9 8 7 7 6 5 6 6 6 6 4 3 2 3 2 2 2 2 2 2 3 4 3 3 3 4 4 5 7 6 6 5 6 7 7 7 8 9 8 7 11 10 10 12 9 2 1 2 2 10 5 4 5 3 3 7 6 7 9 9 9 10 9 8 8 8 7 7 7
9 9 9 8 8 10 11 12 13 12 11 12 11 12 10 9 8 8 9 7 7 7 6 7 8 7 8 8 6 4 3 3 2 3 3 2 3 4 4 4 4 4 4 5 5 5 6 7 6 7 7 8 7 7 6 8 8 10 5 10 8 8 5 3 1 1 5 5 5 7 7 1 3 7 9 9 9 9 10 9 9 8 8 8 8
7 7 7 8 9 10 13 14 13 11 10 12 12 12 11 10 11 10 10 9 8 8 8 9 8 8 8 8 8 8 7 5 4 3 3 3 3 3 3 4 5 5 4 4 4 5 5 6 7 7 8 9 7 8 10 7 7 7 7 5 8 7 5 5 4 3 3 3 7 7 8 10 10 11 10 9 12 9 8 8 8 8 8 8 8
8 9 9 9 9 10 11 14 11 10 11 11 12 13 12 12 11 10 11 10 10 8 9 10 9 9 9 8 8 7 7 7 6 6 4 4 3 3 3 4 4 4 4 4 5 6 6 6 6 6 6 8 8 8 8 8 7 7 8 7 9 9 12 11 10 7 8 6 3 5 4 9 13 9 7 12 9 9 8 7 9 9 9 9 8
Wind_Direction
194 165 177 173 166 166 165 166 165 164 162 161 160 159 159 155 150 150 149 148 152 152 145 142 139 134 132 130 125 124 122 117 118 114 112 114 115 106 108 104 116 125 125 118 113 105 98 94 91 87 82 77 75 75 75 72 70 69 69 71 72 73 75 68 64 70 67 71 75 73 72 72 70 70 71 74 75 73 70 66 67 67 53 70 79
169 169 169 173 168 165 166 166 166 166 165 164 163 162 162 156 153 150 152 154 156 150 147 144 141 139 139 136 133 131 133 132 133 132 129 125 119 119 114 121 119 123 113 109 105 103 97 93 94 91 86 81 77 76 73 70 68 69 72 74 72 72 62 55 50 53 60 76 72 66 64 72 75 73 72 72 75 74 71 68 64 58 67 76 72
150 160 168 172 170 167 165 167 166 167 167 166 165 166 162 158 155 154 157 159 158 152 150 149 148 145 145 143 141 143 143 146 142 141 135 128 122 123 119 114 111 113 115 116 109 102 93 92 91 92 90 83 79 75 73 73 68 64 61 60 59 57 55 52 51 49 51 78 71 59 63 65 73 77 78 74 74 74 76 75 69 57 66 73 77
150 164 165 171 171 168 165 167 167 169 167 168 167 166 162 160 159 158 160 162 159 155 155 155 154 154 151 151 152 153 153 153 151 146 139 132 130 119 117 112 118 120 120 113 108 97 89 88 87 87 87 89 84 76 73 74 72 67 61 56 50 44 44 47 43 41 34 58 33 22 34 70 69 82 84 82 74 68 68 67 66 71 72 72 74
153 160 164 168 171 170 167 167 167 169 168 168 167 167 164 162 161 165 164 165 163 161 161 161 160 158 162 162 163 163 161 155 157 150 143 138 129 127 122 124 125 124 121 115 115 100 89 83 82 83 84 83 82 80 73 69 68 65 63 57 49 35 21 15 19 24 19 4 350 29 344 80 83 81 89 91 84 67 65 78 73 63 60 63 68
154 159 163 167 170 172 168 168 167 169 171 170 167 169 167 164 164 168 168 169 168 166 165 165 166 170 170 172 168 165 162 155 154 150 146 141 134 131 131 129 129 126 124 128 119 98 89 83 80 78 76 77 78 76 70 63 59 57 55 51 46 33 16 356 1 10 1 323 317 148 215 298 94 81 94 95 90 82 77 73 72 69 63 58 61
150 159 162 168 171 173 169 168 168 169 171 172 170 171 168 166 167 171 172 173 172 169 169 170 172 178 175 174 169 167 163 153 145 146 139 134 129 127 123 128 132 126 125 117 104 93 95 94 82 75 71 70 72 72 70 68 61 53 47 43 42 31 14 353 357 352 348 338 313 143 112 68 71 83 87 82 87 87 81 75 74 73 67 56 50
144 158 167 168 171 176 170 170 169 169 173 172 172 173 168 168 169 174 175 176 176 173 173 175 179 182 180 177 171 168 160 151 149 145 140 134 123 121 127 131 127 126 118 111 96 95 95 96 87 78 68 65 66 67 63 62 61 58 48 39 33 25 12 357 358 348 344 350 55 105 109 95 80 73 88 99 92 83 80 77 73 67 61 59 49
153 160 164 170 176 176 174 171 170 173 173 172 171 171 172 170 171 174 178 179 180 180 178 180 183 184 183 179 174 172 162 154 152 146 136 130 125 123 123 123 124 127 123 108 104 103 94 94 90 81 68 64 64 64 60 56 55 53 48 40 32 21 8 4 358 352 352 9 104 110 112 103 95 89 97 89 87 80 73 63 54 61 63 55 44
155 161 166 165 176 181 177 175 173 174 175 173 171 172 173 173 173 175 181 182 185 185 184 186 186 187 185 182 173 175 166 154 153 147 131 125 124 121 108 99 110 142 130 120 118 112 118 104 110 81 71 70 67 62 63 56 52 49 45 42 30 20 12 4 352 357 6 36 78 103 109 109 101 99 99 95 88 84 78 77 73 71 69 61 56
156 162 166 167 171 180 182 179 174 176 177 174 173 174 175 173 174 178 182 186 187 190 190 191 190 190 187 181 176 174 164 160 156 141 129 127 122 119 106 95 84 60 69 150 151 166 154 158 113 124 107 80 70 66 58 54 48 47 47 42 34 26 15 358 356 6 34 49 95 103 107 104 108 110 106 96 90 85 82 83 79 70 70 69 63
155 162 167 162 170 177 185 183 177 178 179 176 175 177 178 174 174 178 184 188 190 193 195 195 194 192 187 182 172 172 165 165 159 147 142 138 134 132 133 128 112 105 78 87 130 304 147 145 131 127 112 94 88 79 71 61 53 49 50 46 37 30 8 358 16 33 43 52 62 72 96 103 111 115 108 104 95 91 90 88 84 76 73 72 70
163 158 167 159 168 178 183 185 181 181 179 177 180 180 183 178 177 180 182 189 191 194 197 199 196 194 187 184 173 169 166 161 151 151 148 143 143 144 144 141 142 146 146 136 156 164 147 163 151 155 118 106 93 83 75 70 68 59 52 48 37 24 6 8 23 42 44 50 65 60 62 81 111 112 111 104 95 86 75 77 76 64 67 67 63
180 140 162 163 169 177 179 183 183 184 181 182 182 183 182 180 181 184 184 186 189 190 196 199 193 188 182 177 171 172 166 160 159 157 153 151 152 156 161 157 164 191 177 170 180 173 170 168 155 151 118 109 98 89 88 84 75 71 63 51 36 21 11 10 16 44 49 42 57 57 45 33 115 113 107 101 93 91 82 77 78 69 58 62 64
167 147 153 162 168 177 179 180 181 185 185 183 184 184 185 184 183 186 189 188 187 187 190 191 183 175 181 175 172 173 170 167 163 160 157 158 158 162 175 175 194 151 76 108 128 167 174 169 160 137 116 110 106 101 92 83 72 66 59 51 37 19 17 18 23 45 54 52 40 45 32 7 116 125 117 104 95 89 85 78 76 69 72 72 68
154 149 145 155 163 170 180 181 178 183 185 184 185 186 186 186 185 187 191 189 188 190 188 182 176 172 174 172 174 177 173 171 166 159 160 156 154 156 161 166 157 154 156 144 140 158 171 154 141 127 118 121 115 103 90 84 78 65 54 45 31 24 25 48 48 54 60 61 48 41 22 15 74 114 129 121 103 84 80 83 76 77 77 71 65
147 147 148 158 160 167 174 180 182 180 181 183 184 186 186 186 186 187 193 189 189 189 181 177 172 169 173 172 176 174 174 170 163 157 153 153 152 152 156 158 154 155 157 156 155 158 162 155 149 127 131 128 118 106 94 82 77 67 57 45 35 25 30 45 58 52 62 62 57 35 19 8 69 88 98 108 103 81 80 83 96 88 81 80 73
150 150 157 160 164 168 172 174 177 179 178 182 185 184 184 183 185 188 190 188 186 183 177 175 172 171 175 178 177 172 166 162 159 156 154 150 150 150 152 159 161 161 158 162 162 160 162 155 139 134 137 130 118 103 89 82 74 68 56 43 31 20 30 46 50 64 65 58 48 35 15 22 76 82 84 88 93 104 97 79 94 104 103 89 88
175 148 158 161 169 169 172 174 178 176 177 179 182 186 183 181 181 186 186 184 183 181 179 175 174 174 178 173 169 166 162 158 155 154 151 149 146 143 150 163 166 167 164 167 165 164 163 161 142 141 136 127 112 94 85 78 74 69 56 41 27 23 32 42 47 66 68 56 38 32 3 15 80 85 90 83 94 106 99 106 110 107 96 109 119
213 177 159 171 167 171 174 179 181 183 179 179 181 182 186 182 181 184 185 182 181 180 179 178 176 176 171 163 161 160 162 154 154 153 151 148 143 142 151 160 170 169 171 171 163 171 163 165 149 144 136 124 106 91 84 81 77 72 55 34 29 39 38 40 58 65 66 54 45 21 360 18 104 97 94 99 98 99 110 125 107 98 105 98 98
247 227 183 175 172 173 177 178 188 187 183 179 182 183 185 183 182 183 184 180 177 178 178 176 174 173 162 159 152 146 147 148 151 151 149 146 147 146 147 157 168 167 172 174 169 172 167 170 154 145 135 111 91 79 74 83 82 70 46 31 42 49 41 56 67 65 56 48 40 13 5 23 100 117 110 116 122 123 122 118 136 119 108 112 118
211 226 226 196 178 183 181 183 184 190 187 184 186 183 179 181 181 182 184 182 178 174 173 169 169 164 157 152 151 148 147 149 148 146 148 149 148 149 149 154 166 164 165 169 172 170 171 171 159 146 125 115 105 83 59 63 72 66 42 53 56 55 46 70 80 72 61 42 35 7 8 70 126 130 132 126 125 135 139 137 130 133 123 121 112
228 226 228 213 199 186 186 185 186 186 187 188 189 185 179 180 181 180 181 182 179 174 170 166 164 162 162 158 155 156 154 153 152 156 155 157 154 153 156 157 164 158 161 162 163 168 170 171 164 138 130 122 111 124 122 111 90 59 52 71 66 44 55 76 89 85 77 65 28 9 15 40 133 144 145 146 142 145 144 134 107 102 127 134 138
213 208 208 209 203 198 191 189 186 184 184 189 189 188 184 179 181 182 180 179 178 178 174 170 168 166 167 164 161 161 159 156 160 155 148 151 156 155 160 163 156 158 154 150 160 160 172 174 160 137 125 123 137 148 130 115 121 59 61 84 73 60 71 81 96 100 92 63 28 12 10 27 116 159 158 153 154 152 158 143 143 123 97 85 116
207 205 206 211 208 204 196 193 186 183 186 188 187 189 184 180 186 184 181 179 180 178 177 175 172 171 170 168 167 161 161 159 156 155 154 150 150 154 155 151 142 154 145 139 136 151 146 121 117 117 142 141 134 161 128 125 152 45 78 118 88 73 76 79 93 99 95 74 26 19 8 1 8 205 172 163 160 177 160 147 137 122 114 134 144
192 188 205 208 208 205 201 196 184 189 189 188 191 185 177 187 188 187 183 185 182 184 178 177 176 176 172 172 166 163 161 160 160 160 157 156 155 157 156 146 145 156 146 142 137 123 121 126 131 145 177 164 157 179 175 156 188 71 137 130 108 91 97 87 100 108 110 87 22 16 6 356 339 276 186 175 163 190 161 158 151 149 137 144 151
195 208 199 204 202 202 204 198 194 187 192 189 188 180 187 188 185 183 184 192 186 182 185 180 180 174 174 172 168 172 166 159 166 165 163 161 161 161 158 156 158 158 160 143 145 139 138 144 146 169 190 200 190 192 182 190 146 140 180 131 121 128 112 101 103 124 134 103 35 16 5 355 339 308 188 196 171 192 174 177 159 148 159 173 157
188 207 202 198 191 201 201 196 203 193 192 189 187 188 186 183 184 181 189 187 182 189 187 188 176 174 176 178 174 171 169 166 169 168 167 162 165 164 160 159 159 165 162 151 147 147 146 150 156 174 195 225 178 178 163 167 166 157 143 131 130 124 115 115 109 131 127 99 59 8 8 355 346 340 215 192 191 178 180 185 172 165 170 167 167
212 213 203 189 197 197 193 197 199 202 196 190 192 192 184 183 180 184 191 180 187 188 188 181 179 178 179 176 174 175 175 170 172 174 158 169 163 165 165 167 164 167 160 165 157 158 159 161 168 183 194 204 190 163 145 146 150 151 143 141 142 139 135 126 108 119 122 120 81 26 16 357 354 357 310 211 198 189 197 181 178 174 186 167 168
216 205 192 208 199 194 192 194 193 195 195 186 196 189 191 186 188 188 188 179 190 185 178 183 182 175 183 182 182 175 177 174 171 169 168 170 168 167 169 170 172 170 169 170 174 162 167 167 173 182 181 189 178 178 147 151 151 152 149 150 156 160 160 152 152 134 147 133 104 62 25 13 2 7 358 304 223 200 200 197 181 180 177 179 172
204 198 203 205 195 184 196 195 195 192 188 193 192 192 186 195 189 188 185 189 181 175 181 182 181 184 183 180 180 176 171 169 170 171 175 166 170 171 178 169 172 182 177 171 171 172 168 173 176 178 177 179 179 171 159 158 165 166 169 152 180 148 165 177 169 146 144 146 125 93 39 30 23 20 8 281 250 218 225 203 191 185 185 181 185
195 214 207 195 172 190 194 194 192 189 187 197 193 194 190 193 185 177 187 187 172 178 181 181 184 185 178 175 177 177 172 172 168 172 174 171 173 176 174 176 185 179 183 173 171 174 171 173 171 169 169 167 167 168 168 153 168 176 170 170 166 162 172 175 168 156 149 150 145 120 72 47 35 37 30 38 63 56 38 260 194 199 199 186 183
230 225 211 156 183 192 189 197 191 186 190 193 195 199 187 178 177 186 177 171 177 171 177 183 183 180 176 174 178 177 176 169 175 171 173 172 170 173 179 188 182 178 182 175 164 166 160 160 169 159 156 157 156 174 163 156 157 179 168 176 161 166 174 162 160 137 152 163 162 144 117 86 57 46 41 33 31 57 62 44 162 197 210 197 186
344 354 52 200 210 170 189 177 185 185 194 193 179 178 178 168 165 170 162 161 169 170 176 176 172 172 174 177 176 174 174 170 165 172 169 171 173 179 181 188 183 178 171 165 169 169 166 163 170 159 168 165 174 177 164 168 183 172 175 181 164 175 166 163 168 169 158 172 171 157 156 118 93 76 51 35 29 30 63 74 61 120 203 188 190
6 360 205 220 173 166 156 173 183 184 177 179 174 174 161 151 153 156 157 160 160 163 158 158 161 167 166 173 171 168 172 167 167 164 175 173 176 182 186 188 174 170 169 176 164 171 163 174 163 168 167 170 176 176 173 175 171 179 189 175 179 173 162 173 172 178 180 176 161 177 169 152 135 105 78 65 33 27 33 62 94 95 135 165 175
20 7 350 29 56 56 79 98 111 134 168 161 146 150 155 146 135 143 147 150 151 154 154 156 155 151 154 159 163 163 166 167 167 164 168 180 181 186 191 173 174 166 169 166 161 171 175 168 182 163 163 183 172 186 177 172 177 181 189 177 184 173 168 165 175 180 201 147 171 177 178 170 166 147 128 97 77 36 39 50 67 72 63 77 163
26 25 22 23 39 34 44 63 87 98 115 98 97 114 124 125 128 137 144 138 142 145 143 133 136 141 144 150 154 161 166 160 164 169 168 182 187 189 183 176 167 167 166 171 174 171 166 170 181 187 173 171 180 177 184 176 178 183 181 176 184 174 170 175 177 185 169 169 182 177 164 185 181 166 148 138 114 85 56 58 59 53 37 42 61
27 28 30 41 41 43 42 41 36 36 61 90 88 87 88 85 81 85 91 103 114 125 128 131 136 140 143 150 156 160 167 165 163 167 174 181 182 181 173 174 170 168 171 172 183 162 165 163 179 201 185 165 180 179 185 181 171 175 181 181 187 174 183 183 186 182 170 188 197 182 182 178 171 167 165 161 159 146 110 83 81 62 31 28 89
32 31 34 33 38 33 43 38 37 33 30 37 44 51 55 57 55 60 62 70 83 100 125 132 145 144 151 159 164 162 172 171 165 165 172 172 171 172 175 179 173 172 167 175 174 172 170 178 179 195 208 196 179 185 175 165 162 158 165 187 176 189 198 197 183 181 190 190 191 198 166 180 170 159 167 170 170 163 159 146 127 118 353 349 9
34 33 37 39 39 35 32 31 27 32 42 40 39 42 45 38 41 26 39 20 30 44 31 76 114 131 144 162 168 171 173 174 174 169 173 172 173 181 182 174 177 168 175 180 189 184 188 187 195 184 190 214 201 166 144 139 107 111 133 127 202 194 180 197 186 194 196 192 195 179 184 195 185 176 169 177 173 175 176 179 177 183 202 253 278
32 33 38 36 39 41 44 36 24 31 37 35 37 44 36 20 30 38 39 9 25 21 39 18 44 87 146 156 170 175 178 181 182 171 182 181 186 178 175 181 177 180 186 196 192 200 203 196 187 185 178 183 204 179 170 141 132 81 17 26 296 303 268 198 202 206 204 202 201 186 192 180 202 192 185 171 177 179 184 185 189 191 200 210 245
25 33 39 38 38 38 40 38 33 34 34 37 43 47 37 75 86 25 69 31 20 26 9 1 21 23 50 109 156 172 184 193 193 187 186 184 184 181 184 187 178 191 197 190 189 196 191 193 169 197 215 187 199 184 176 131 185 176 159 227 311 314 292 284 247 238 220 217 203 193 188 190 197 201 192 168 181 187 190 188 184 189 198 200 215
32 34 32 39 37 36 34 36 36 39 32 30 40 45 50 42 60 36 47 57 43 56 69 348 34 62 45 44 114 155 182 209 207 199 194 198 194 187 194 186 187 185 184 192 190 197 197 194 185 191 203 243 210 198 185 193 163 132 104 92 243 212 292 287 266 240 227 216 200 200 195 193 199 195 191 183 187 193 194 186 184 189 193 198 207
34 31 28 33 36 35 34 36 35 35 32 29 38 33 73 97 74 73 56 84 85 24 36 25 16 24 17 14 51 130 176 208 219 220 226 217 204 202 197 187 197 189 190 192 193 203 197 195 194 206 179 194 211 212 209 199 141 141 193 202 208 148 290 242 220 238 206 211 196 207 196 204 197 203 194 198 200 197 198 191 188 190 194 194 201
39 37 31 29 32 32 33 39 42 38 34 31 32 36 30 25 15 20 30 16 4 22 18 350 357 358 341 1 319 89 162 207 221 225 225 228 226 227 208 207 199 200 194 199 199 204 200 199 197 197 190 195 212 213 219 221 211 204 154 104 38 265 222 244 157 269 190 211 222 207 207 202 201 201 202 213 204 202 197 202 201 194 195 194 197
40 36 35 35 33 31 29 30 35 35 34 33 34 44 49 49 41 42 32 24 18 13 9 336 325 309 247 286 348 23 111 293 265 248 250 249 241 235 225 207 218 210 205 210 210 207 211 206 204 199 204 213 203 190 215 235 231 240 240 232 145 181 185 228 124 260 340 244 227 215 212 208 202 202 208 208 206 208 204 204 201 203 197 194 195
33 29 39 41 41 38 34 35 34 32 28 31 34 38 45 46 54 60 58 49 32 0 340 344 332 299 280 290 287 313 234 189 269 272 264 257 260 260 244 229 220 218 221 219 222 217 215 213 206 206 213 212 184 201 208 214 233 261 254 255 290 130 171 129 214 72 290 292 227 220 230 219 211 205 208 210 205 201 211 202 203 202 203 197 192
24 32 38 37 41 40 43 41 40 36 31 29 35 34 45 40 42 41 45 37 31 10 358 355 11 6 353 310 294 271 281 230 228 258 256 266 267 274 264 256 239 231 212 218 223 226 226 232 217 218 217 212 207 212 212 206 199 225 224 243 251 265 300 5 153 183 173 177 250 264 277 227 221 224 214 208 204 205 201 205 201 201 200 201 195
29 35 35 36 39 41 46 46 43 38 32 33 36 34 39 40 43 38 36 24 22 16 1 15 17 7 24 4 348 313 304 287 264 244 246 235 242 250 269 273 264 256 222 236 236 232 225 222 221 221 218 224 216 222 213 218 215 227 210 242 249 246 261 276 9 101 169 193 251 196 217 223 243 245 232 215 211 205 202 200 199 197 198 203 199
26 32 40 40 40 39 42 45 41 36 32 35 37 38 37 37 39 35 36 23 18 13 20 16 11 9 17 11 5 360 336 317 298 286 275 255 240 240 249 255 258 260 253 240 248 249 245 235 226 221 220 224 221 217 223 227 222 231 220 225 224 236 258 272 267 242 301 213 220 199 199 184 203 233 215 216 215 207 201 197 196 198 201 200 200
29 31 33 35 38 39 41 48 41 38 33 34 37 38 37 36 37 33 33 29 21 24 22 16 9 11 9 1 5 353 3 346 329 317 310 300 289 262 242 247 255 268 270 265 246 239 245 240 237 232 227 224 224 227 232 234 227 227 230 222 228 213 216 217 217 211 208 216 221 234 207 205 205 227 227 215 211 209 202 196 199 203 200 200 199